BLUEWALKER 1 (44105 NORAD) Tracking and Keplerian Element Data

This shows tracking and keplerian element data for the satellite.

Feedback or suggestion? Click here.




ElementValue
Catalog44105
NameBLUEWALKER 1
Epoch Orbit24706
Epoch Day239.0909958
Epoch Year2023
RAAN340.2716
Inclination97.3892
Eccentricity0.0023749
Argument of Perigee343.0659
Mean Anonmoly16.9806
Mean Motion15.67770711
Decay Rate0.00076526
L11 44105U 19018AD 23239.09099580 .00076526 00000+0 68409-3 0 9997
L22 44105 97.3892 340.2716 0023749 343.0659 16.9806 15.67770711247063



Live tracking and technical data element details for BLUEWALKER 1 (NORAD 44105). BLUEWALKER 1 can be tracked NOW for your location showing map with azimuth and elevation plus other details from your city location.







IsCatalogInMostPopularTable: catalog: 44105, numindb: 587
Update: records affected: 1



GetName: 44105 BLUEWALKER 1

Hit Count: updated at: Fri, 16 May 2025 10:19:09 GMT